{"data":{"norad_id":39453,"intl_designator":"2013-067C","name":"SWARM C","alt_names":[],"object_type":"PAYLOAD","status":"ACTIVE","operator":null,"country":"ESA","launch_date":"2013-11-22","launch_site_code":"PLMSC","launch_vehicle":null,"mission":null,"orbit_class":"UNKNOWN","rcs_meters":2.365,"size_class":null,"mass_kg":null,"dimensions":null,"purposes":["science"],"wikipedia_slug":null,"has_3d_model":false,"image_url":null,"decayed_at":null,"tle_current":{"epoch":"2026-05-25T04:21:21.517056Z","epoch_age_seconds":62529,"freshness":"FRESH","line1":"1 39453U 13067C   26145.18149904  .00010491  00000+0  18380-3 0  9992","line2":"2 39453  87.3333  63.3630 0003193  85.6953 274.4673 15.50423306702647","mean_motion":15.50423306,"eccentricity":0.0003193,"inclination_deg":87.3333,"raan_deg":63.363,"arg_perigee_deg":85.6953,"mean_anomaly_deg":274.4673,"bstar":0.0001838,"rev_number":70264,"period_min":92.877860802745,"perigee_km":413.32002485029,"apogee_km":417.65843456058,"semimajor_km":6793.6262297054,"source":"CELESTRAK","updated_at":"2026-05-25T13:38:24.643041Z"}}}